TimeCST,TemperatureF,Dew PointF,Humidity,Sea Level PressureIn,VisibilityMPH,Wind Direction,Wind SpeedMPH,Gust SpeedMPH,PrecipitationIn,Events,Conditions,WindDirDegrees,DateUTC
12:55 AM,53.1,44.1,71,29.71,10.0,SSW,15.0,20.7,N/A,,Clear,210,2013-01-12 06:55:00
1:55 AM,51.8,42.8,71,29.73,10.0,SW,11.5,-,N/A,,Clear,230,2013-01-12 07:55:00
2:55 AM,51.1,28.9,43,29.78,8.0,West,19.6,28.8,N/A,,Partly Cloudy,260,2013-01-12 08:55:00
3:09 AM,50.0,26.6,40,29.78,7.0,West,13.8,24.2,N/A,,Mostly Cloudy,270,2013-01-12 09:09:00
3:55 AM,43.0,32.0,65,29.83,7.0,West,18.4,28.8,N/A,,Overcast,270,2013-01-12 09:55:00
4:24 AM,37.4,32.0,81,29.84,10.0,West,16.1,27.6,N/A,,Scattered Clouds,280,2013-01-12 10:24:00
4:55 AM,36.0,32.0,86,29.88,10.0,WNW,13.8,23.0,N/A,,Clear,290,2013-01-12 10:55:00
5:55 AM,33.1,28.0,82,29.94,10.0,WNW,16.1,24.2,N/A,,Clear,300,2013-01-12 11:55:00
6:55 AM,30.9,25.0,79,29.98,10.0,West,11.5,18.4,N/A,,Clear,280,2013-01-12 12:55:00
7:55 AM,28.0,16.0,61,30.02,10.0,WNW,12.7,19.6,N/A,,Clear,290,2013-01-12 13:55:00
8:55 AM,27.0,15.1,61,30.05,10.0,NW,11.5,21.9,N/A,,Clear,310,2013-01-12 14:55:00
9:55 AM,28.9,15.1,56,30.05,10.0,NW,9.2,-,N/A,,Clear,310,2013-01-12 15:55:00
10:55 AM,28.9,15.1,56,30.08,10.0,NW,5.8,-,N/A,,Clear,320,2013-01-12 16:55:00
11:55 AM,30.0,16.0,56,30.05,10.0,NW,4.6,-,N/A,,Partly Cloudy,310,2013-01-12 17:55:00
12:55 PM,30.0,16.0,56,30.01,10.0,NW,6.9,-,N/A,,Overcast,320,2013-01-12 18:55:00
1:55 PM,30.9,16.0,54,30.05,10.0,WNW,6.9,-,N/A,,Overcast,300,2013-01-12 19:55:00
2:55 PM,30.9,17.1,57,30.04,10.0,WNW,8.1,-,N/A,,Overcast,300,2013-01-12 20:55:00
3:55 PM,30.0,17.1,59,30.01,10.0,North,9.2,-,N/A,,Overcast,350,2013-01-12 21:55:00
4:55 PM,28.9,17.1,61,30.02,10.0,NNW,8.1,-,N/A,,Overcast,330,2013-01-12 22:55:00
5:55 PM,28.0,18.0,66,30.09,9.0,NW,8.1,-,0.00,,Overcast,320,2013-01-12 23:55:00
6:42 PM,26.6,15.8,64,30.03,8.0,NW,10.4,-,0.00,Snow,Light Snow,320,2013-01-13 00:42:00
6:51 PM,26.6,17.6,69,30.02,1.8,NW,13.8,-,0.00,Snow,Light Snow,310,2013-01-13 00:51:00
6:55 PM,26.1,19.0,75,30.07,1.2,NW,9.2,-,0.00,Snow,Light Snow,320,2013-01-13 00:55:00
7:25 PM,24.8,21.2,86,29.99,2.0,NNW,9.2,-,0.00,Snow,Light Snow,340,2013-01-13 01:25:00
7:44 PM,24.8,21.2,86,29.98,1.8,NNW,12.7,-,0.01,Snow,Light Snow,340,2013-01-13 01:44:00
7:51 PM,24.8,21.2,86,29.99,2.5,NNW,11.5,-,0.01,Snow,Light Snow,330,2013-01-13 01:51:00
7:55 PM,24.1,21.0,88,30.03,3.0,NNW,12.7,-,0.01,Snow,Light Snow,340,2013-01-13 01:55:00
8:08 PM,24.8,21.2,86,29.99,6.0,NNW,12.7,23.0,0.00,Snow,Light Snow,330,2013-01-13 02:08:00
8:16 PM,24.8,19.4,80,29.98,7.0,NNW,16.1,24.2,0.00,Snow,Light Snow,340,2013-01-13 02:16:00
8:27 PM,23.0,19.4,86,30.00,9.0,NNW,11.5,25.3,0.00,,Overcast,330,2013-01-13 02:27:00
8:36 PM,23.0,19.4,86,29.99,10.0,NNW,12.7,20.7,0.00,,Overcast,330,2013-01-13 02:36:00
8:55 PM,23.0,17.1,78,30.04,10.0,North,11.5,18.4,0.00,,Overcast,350,2013-01-13 02:55:00
9:38 PM,23.0,17.6,80,30.01,2.0,NNW,9.2,-,0.00,Snow,Light Snow,340,2013-01-13 03:38:00
9:46 PM,21.2,17.6,86,30.02,1.2,NNW,9.2,-,0.00,Snow,Light Snow,340,2013-01-13 03:46:00
9:55 PM,21.9,18.0,85,30.07,1.5,NNW,6.9,-,0.00,Snow,Light Snow,340,2013-01-13 03:55:00
10:04 PM,21.2,17.6,86,30.02,2.5,NNW,8.1,-,0.01,Snow,Light Snow,340,2013-01-13 04:04:00
10:15 PM,21.2,17.6,86,30.02,1.8,NNW,8.1,-,N/A,Snow,Light Snow,330,2013-01-13 04:15:00
10:24 PM,21.2,17.6,86,30.00,2.0,North,11.5,-,0.01,Snow,Light Snow,350,2013-01-13 04:24:00
10:32 PM,21.2,17.6,86,30.01,3.0,North,11.5,-,0.01,Snow,Light Snow,350,2013-01-13 04:32:00
10:55 PM,21.9,18.0,85,30.04,6.0,North,11.5,-,0.01,Snow,Light Snow,350,2013-01-13 04:55:00
11:55 PM,21.9,14.0,72,30.05,10.0,NW,12.7,-,0.00,,Overcast,320,2013-01-13 05:55:00